Theta_e
334 335 335 334 333 333 333 333 332 332 332 331 331 331 332 333 334 334 334 334 332 331 331 330 331 331 331 330 330 330 330 330 329 326 324 324 322 321 321 322 322 321 319 319 319 318 318 318 317 317 316 315 314 314 314 315 316 317 317 318 318 318 318 318 318 318 318 318 318 318 318 317 317 318
335 336 336 336 335 333 333 333 333 334 334 333 332 332 332 333 334 334 335 335 332 330 331 330 330 330 329 330 330 331 331 331 330 328 327 325 322 320 319 319 320 321 320 320 320 320 320 320 320 319 318 317 316 315 314 314 315 316 316 317 318 318 318 318 318 318 318 318 318 318 318 318 318 318
333 333 332 332 332 331 332 333 334 334 334 332 331 333 334 333 331 331 333 334 333 331 330 328 328 328 328 329 329 330 330 330 330 329 328 326 323 321 320 319 319 319 320 320 319 319 319 319 320 320 320 319 318 318 317 316 316 316 316 316 317 317 318 318 318 318 318 318 318 318 318 318 318 318
334 333 329 327 327 329 331 333 334 334 332 331 331 332 333 332 331 330 331 330 328 327 326 325 325 326 327 327 328 329 329 329 330 330 329 328 327 325 322 320 320 320 319 319 318 319 320 319 319 319 319 319 319 319 319 319 318 318 317 316 316 317 317 318 318 317 317 317 317 317 317 317 317 318
333 335 331 326 328 332 334 335 335 334 332 331 332 333 333 332 332 331 331 328 325 324 324 325 324 324 325 325 326 327 329 329 329 330 329 329 329 328 326 323 322 321 321 321 320 320 322 322 320 320 320 320 320 320 320 320 319 319 318 317 316 316 317 318 317 317 317 317 317 317 317 317 317 317
324 328 326 323 326 330 332 333 334 334 333 332 333 333 333 332 332 332 331 330 329 327 325 325 325 325 325 324 324 326 327 328 329 329 329 329 329 328 327 326 326 326 326 326 325 323 323 324 324 323 323 322 323 322 322 321 320 319 319 318 317 317 317 318 318 317 317 317 317 317 317 317 317 316
317 320 320 319 323 329 331 332 334 335 334 333 333 333 332 332 332 331 331 331 331 330 328 327 327 326 326 325 325 325 326 326 327 328 328 328 328 327 327 328 328 328 328 328 327 326 325 326 326 325 325 324 324 324 323 322 321 320 320 319 319 319 318 317 317 317 317 317 317 317 317 317 317 316
316 317 318 319 324 331 334 335 335 335 334 333 332 332 332 333 332 332 333 332 332 332 331 329 328 328 328 327 326 326 326 324 324 325 327 328 328 327 327 329 329 329 328 327 327 327 327 326 325 323 323 324 325 325 324 323 323 321 321 321 320 320 320 319 318 318 318 318 318 317 317 317 317 316
317 318 320 322 327 331 333 333 333 334 334 333 333 332 332 333 333 333 333 333 333 333 332 330 328 328 328 328 328 327 327 326 324 325 326 327 327 327 327 328 328 327 327 327 326 326 326 325 324 323 323 323 324 324 323 323 323 323 322 321 319 319 319 319 318 317 317 317 317 317 317 317 317 316
319 321 325 329 330 331 332 333 334 334 334 333 332 332 332 332 333 333 334 334 334 333 332 330 329 329 329 328 328 327 327 327 326 325 325 326 326 327 327 327 326 326 326 326 326 326 325 324 324 324 324 323 323 323 323 323 324 324 323 321 318 316 317 318 316 315 314 315 315 316 316 316 317 316
319 319 323 327 326 326 329 332 333 333 333 332 331 331 331 331 332 332 331 331 332 332 331 331 330 330 329 329 328 327 327 327 326 327 327 327 326 326 326 326 326 326 326 326 325 324 322 321 322 324 324 324 324 323 322 323 323 323 323 322 320 317 317 318 317 314 313 314 314 316 316 316 316 316
319 318 322 325 325 326 329 330 331 332 331 331 331 330 331 331 330 328 327 327 328 329 330 330 329 329 329 329 329 328 327 327 327 327 327 327 327 326 326 326 326 326 326 324 321 320 320 320 321 322 322 322 321 320 321 321 322 322 322 322 322 320 320 321 318 314 314 316 317 319 320 319 317 316
320 322 328 333 333 332 333 333 332 332 331 331 331 331 331 329 328 327 328 328 328 329 330 330 329 329 329 329 328 327 326 326 327 327 327 327 327 326 326 325 324 324 321 318 317 318 319 320 320 319 319 318 317 317 318 319 321 322 322 323 324 323 323 323 320 316 316 316 317 319 320 320 318 317
324 325 329 334 335 334 334 334 333 332 331 330 330 330 329 328 328 329 329 329 327 327 329 330 330 329 328 328 327 326 325 325 326 328 327 327 326 325 324 322 319 318 315 316 318 319 320 320 319 317 317 316 314 314 316 317 318 320 322 323 323 323 322 321 320 319 319 318 317 317 318 319 318 318
332 333 332 334 336 334 333 332 332 331 331 331 330 330 328 328 330 330 329 328 327 325 328 330 330 329 327 327 326 325 325 326 327 328 327 326 325 323 322 319 317 315 315 317 320 319 318 318 317 315 315 314 315 316 317 318 317 319 320 321 321 321 321 321 321 320 320 319 319 319 318 318 319 319
335 337 336 336 336 335 334 332 332 333 332 331 330 329 329 330 331 330 328 328 327 325 327 329 328 326 326 327 326 326 325 325 326 327 326 325 324 322 320 317 316 314 314 317 318 316 314 315 316 316 316 317 318 318 319 319 319 320 320 320 320 321 321 321 319 318 318 318 318 318 319 319 319 320
336 337 337 337 336 335 334 332 333 333 331 329 328 328 329 330 329 327 326 327 327 326 327 328 327 326 326 327 326 325 325 325 326 326 326 324 322 320 317 315 313 313 314 316 317 316 316 317 319 320 319 318 319 319 319 320 320 320 320 320 321 320 319 318 317 317 318 319 319 319 320 320 320 320
336 336 336 336 336 335 333 332 332 331 328 327 327 327 328 329 327 324 325 326 326 326 326 327 326 326 326 326 325 325 325 325 324 324 324 322 319 316 315 315 315 316 317 318 319 319 318 319 320 320 319 318 319 319 319 319 319 319 319 317 316 316 316 317 318 319 320 320 320 320 320 320 320 320
336 335 335 335 335 334 333 332 331 328 326 325 324 325 327 327 324 323 325 326 326 325 325 325 325 325 325 326 325 325 324 324 323 322 320 318 317 317 317 317 318 319 319 319 319 319 319 319 319 319 319 319 319 318 318 318 317 316 314 313 314 316 318 319 320 320 320 320 320 320 320 320 320 320
335 334 335 334 333 334 334 332 329 326 324 323 323 326 327 324 323 324 325 326 325 324 323 323 324 325 326 326 325 324 323 322 321 319 318 317 318 319 318 318 319 320 320 319 319 319 319 318 318 318 318 318 318 317 317 316 313 312 312 315 318 319 320 319 319 319 319 319 319 320 320 321 321 321
335 335 334 333 331 332 331 328 326 324 323 322 324 326 324 323 324 326 325 325 324 323 322 322 323 324 324 324 323 322 321 320 319 319 319 319 319 319 319 320 320 320 320 319 318 319 318 317 317 317 317 316 316 314 312 310 310 313 316 318 319 320 319 319 318 318 318 319 320 321 321 322 322 322
335 335 335 334 333 332 328 322 321 323 324 324 325 325 325 325 326 326 325 324 323 322 321 320 320 321 321 321 321 320 319 319 319 319 319 319 319 319 320 320 320 320 319 318 317 317 317 316 316 316 314 313 311 309 308 310 313 317 319 320 320 320 319 317 317 318 319 320 321 322 322 323 323 323
335 336 336 335 334 331 323 318 322 327 327 326 326 326 327 326 326 325 324 323 321 321 320 319 319 319 320 320 319 318 319 320 320 319 319 319 320 320 319 320 320 320 319 317 317 316 315 314 313 311 311 311 309 310 313 316 318 320 320 320 321 319 317 317 318 319 320 321 321 322 324 324 325 324
336 337 336 335 332 325 319 321 327 328 326 326 327 327 327 325 324 323 321 320 319 319 318 318 319 319 319 319 319 318 319 320 319 319 319 319 318 318 318 318 318 318 317 315 314 312 311 310 309 309 312 314 315 316 318 319 320 320 320 320 320 318 317 318 319 320 321 321 322 323 324 326 326 326
337 336 335 331 325 321 323 327 328 326 325 326 326 325 325 323 322 320 319 319 319 318 318 319 319 318 317 318 319 319 319 319 319 319 319 318 318 317 317 317 316 315 312 308 307 309 310 311 311 312 315 317 317 318 319 320 320 320 320 320 319 317 317 319 320 321 321 322 322 323 324 326 327 327
335 333 329 324 320 322 327 328 326 325 325 325 324 323 322 320 319 319 319 319 318 318 319 319 317 316 317 319 320 319 319 318 318 318 317 316 316 314 313 311 310 308 306 304 307 311 313 313 314 315 316 317 318 319 320 320 320 319 318 318 317 316 317 320 320 321 321 322 322 323 324 326 328 328
331 326 322 319 320 325 328 326 326 326 325 323 322 320 319 318 319 319 319 319 319 319 318 317 316 317 319 320 319 318 318 318 318 317 316 314 312 310 307 306 306 308 309 309 311 312 313 314 316 317 317 318 319 320 320 321 320 318 317 317 316 316 318 320 320 321 321 322 322 323 324 326 328 329
325 322 321 321 324 327 327 326 326 324 323 321 320 318 318 319 319 319 319 319 318 317 316 317 318 319 319 318 318 317 317 316 315 313 312 310 308 308 308 308 309 310 310 310 310 312 314 316 317 318 318 319 320 320 321 320 320 318 317 316 316 316 317 319 320 321 321 321 322 322 323 325 327 329
328 326 326 326 326 326 326 326 324 322 320 320 319 319 319 319 318 318 318 318 317 317 317 319 319 318 317 317 317 316 315 313 311 311 310 309 308 309 310 310 309 308 308 309 312 315 316 317 318 318 319 319 320 320 320 320 319 318 317 316 316 317 318 319 319 320 320 321 321 321 322 324 326 328
332 330 327 326 326 327 326 323 321 320 319 320 320 320 319 318 318 318 318 318 318 318 318 318 317 315 315 315 315 314 312 311 311 311 310 310 310 310 310 309 307 306 308 310 313 315 316 316 317 318 319 319 319 320 320 320 319 318 317 316 317 318 319 319 319 319 319 319 320 321 322 325 327 328
331 327 325 326 326 325 323 321 320 321 321 321 321 320 319 319 318 318 317 317 318 318 317 316 315 315 315 315 314 312 311 311 311 311 309 309 310 309 309 308 307 308 309 311 312 314 315 316 317 318 318 319 319 319 319 319 319 318 317 316 316 317 318 318 318 319 319 319 319 321 322 325 328 329
327 325 325 325 324 323 322 322 323 323 322 322 321 320 320 319 319 319 318 318 317 317 317 316 315 315 315 315 314 312 310 310 310 309 309 309 309 308 308 308 309 310 310 310 311 312 314 315 316 317 317 318 318 319 319 319 318 318 317 316 316 317 318 318 318 318 318 319 319 320 323 326 328 330
324 324 325 324 323 324 324 324 324 324 323 323 322 321 320 319 319 319 319 318 318 317 317 316 316 315 315 314 313 311 310 309 309 308 308 308 308 308 308 309 309 310 310 310 310 311 313 314 315 316 317 318 318 319 319 319 318 318 317 316 317 317 317 318 318 318 318 318 319 320 323 326 328 330
324 325 326 325 325 326 325 325 325 324 323 323 322 321 320 319 319 318 318 317 317 317 316 316 315 314 314 313 312 310 309 308 308 308 308 308 308 308 308 309 309 310 310 309 309 310 311 313 315 317 317 317 318 319 319 319 318 317 316 316 316 317 317 317 317 317 318 318 319 320 321 324 328 331
325 327 327 326 326 326 325 325 324 324 323 322 321 320 319 319 319 318 317 317 317 316 315 314 314 313 312 310 308 308 308 308 307 307 307 308 308 308 308 309 309 309 309 309 309 310 312 314 316 317 317 317 318 318 319 318 317 316 315 315 316 316 317 317 317 317 317 318 319 319 320 322 328 332
325 326 326 325 325 325 324 324 323 323 322 321 320 319 319 318 318 317 316 316 315 314 314 312 311 310 309 308 307 307 308 307 307 307 308 308 308 308 309 309 308 308 308 308 308 310 313 315 316 317 317 317 317 318 318 318 316 315 315 316 316 316 316 316 316 316 317 317 318 319 319 321 326 331
324 324 324 324 324 324 323 323 322 321 321 320 319 319 318 318 317 316 316 316 314 313 313 311 310 309 309 308 307 307 307 307 307 308 308 308 308 308 308 308 308 308 308 308 308 310 313 315 316 317 316 317 317 318 318 317 315 315 315 315 316 316 316 315 316 316 316 317 318 318 318 320 325 331
322 321 322 323 323 323 322 321 321 320 320 319 319 318 318 317 316 316 315 315 314 313 312 310 309 309 308 307 306 307 307 307 307 307 307 307 308 308 307 307 308 308 308 308 308 310 313 315 316 316 316 317 318 318 317 317 315 315 315 315 315 315 314 315 315 315 316 317 317 318 319 321 325 329
320 319 320 322 323 322 321 321 320 320 319 319 318 318 317 316 315 315 314 314 313 312 311 310 310 308 305 305 307 308 307 307 307 306 306 307 307 307 307 307 308 308 307 308 309 310 313 315 315 315 316 317 318 318 318 317 315 315 314 315 314 314 313 314 314 315 315 316 317 318 320 323 326 329
320 320 320 321 321 321 320 320 320 319 319 318 317 317 316 315 315 314 313 313 313 310 307 306 307 306 304 305 308 308 307 307 306 306 306 306 306 306 307 307 307 307 308 308 309 311 313 314 314 315 316 317 318 318 318 317 315 314 314 314 315 314 313 313 313 314 314 315 316 317 319 323 326 328
321 321 320 320 320 320 320 319 319 318 318 317 316 316 315 315 314 314 313 313 312 308 304 303 304 305 306 308 308 307 306 306 306 305 306 306 306 306 307 307 307 307 307 308 309 311 312 313 314 315 316 317 317 318 317 317 315 314 313 313 315 315 314 313 312 313 314 314 315 315 317 320 324 326
322 321 320 320 319 319 319 318 317 317 316 316 315 315 315 314 313 312 312 311 309 307 306 306 307 308 308 307 306 306 306 306 305 305 305 305 306 307 307 307 307 307 307 308 309 310 311 313 314 316 316 317 317 317 317 317 315 313 313 314 315 315 315 313 312 313 313 313 314 314 315 317 321 324
321 320 320 320 319 318 317 317 316 316 315 314 314 314 313 313 312 311 309 307 307 307 308 307 307 307 306 306 306 306 305 304 304 304 305 305 306 306 307 307 307 307 307 307 308 309 311 313 315 316 316 316 316 317 317 316 313 312 313 314 314 314 314 313 312 313 314 314 314 314 313 313 315 317
321 320 319 319 318 317 317 316 315 315 314 314 313 313 312 311 311 309 307 305 306 307 307 306 306 306 306 306 305 304 302 303 304 305 305 305 306 306 307 307 306 307 307 307 307 309 311 313 314 316 316 316 317 317 316 314 312 312 312 313 313 313 312 311 311 313 314 314 314 314 314 314 314 316
320 319 319 318 317 317 316 316 315 315 314 314 313 312 311 310 309 307 305 304 304 305 306 306 306 306 306 305 304 302 302 304 305 305 305 305 305 306 307 306 306 307 307 307 307 308 310 312 314 315 316 316 316 316 315 313 312 312 312 312 312 311 310 309 309 310 312 313 313 313 314 315 316 317
Wind_Speed
8 7 6 5 6 9 9 9 9 9 10 10 8 7 6 7 8 8 8 9 9 8 6 7 9 10 11 14 16 18 19 20 21 22 21 20 20 20 21 22 23 22 20 19 20 20 20 20 20 20 21 21 22 22 22 22 22 22 21 21 21 20 20 19 19 19 19 19 20 22 23 24 26 27
11 12 12 10 9 10 8 7 6 7 9 10 8 6 5 6 7 8 10 11 10 8 8 8 9 11 12 13 15 17 18 19 21 22 21 20 19 18 19 20 22 23 23 22 22 22 22 22 22 22 22 22 23 24 24 25 25 25 25 24 24 23 23 22 21 21 20 19 19 19 20 22 23 25
13 14 15 15 15 14 11 11 11 11 12 12 8 5 6 7 8 9 10 12 11 9 11 12 12 13 13 13 15 17 18 20 21 22 21 19 18 18 18 18 19 21 22 23 24 24 24 23 23 23 23 23 24 25 26 27 27 27 27 27 27 26 26 25 24 23 22 22 21 21 20 20 21 22
11 11 12 13 13 12 10 11 12 12 12 10 6 6 8 9 10 9 9 12 13 12 12 14 14 15 15 15 15 16 18 20 21 23 22 20 19 19 19 18 18 19 21 23 24 26 26 25 24 24 24 24 25 26 27 28 29 30 29 29 29 29 28 27 26 25 24 23 23 23 23 22 22 22
13 14 13 12 11 10 10 10 12 12 10 7 5 6 9 11 10 9 10 13 15 14 13 14 16 16 17 19 19 18 18 19 21 23 22 21 20 21 21 20 20 20 21 22 24 25 26 25 24 25 25 25 25 25 26 27 29 30 30 30 30 30 30 29 28 26 25 24 24 24 24 24 24 24
15 16 15 13 12 12 12 12 12 11 8 5 5 8 11 11 11 10 11 13 15 15 16 16 17 18 19 21 21 21 21 21 21 22 22 21 20 21 21 21 21 21 22 23 24 24 24 23 23 23 24 24 24 23 23 24 25 28 29 30 30 30 30 30 29 28 27 26 26 26 26 26 26 25
14 15 15 13 13 12 11 10 10 9 9 8 9 12 13 13 12 12 12 12 14 16 17 17 18 19 20 22 22 22 22 22 22 22 22 22 22 23 23 21 20 22 23 24 25 24 23 22 22 23 25 25 25 24 24 24 25 26 28 29 29 30 30 31 32 31 29 28 28 28 28 28 27 26
14 15 15 13 12 12 11 11 10 11 11 11 12 13 12 12 12 12 12 13 14 16 17 18 20 21 23 24 24 23 23 24 24 23 22 22 23 25 24 21 20 22 22 22 22 23 23 23 24 25 27 27 27 27 28 28 29 29 28 28 29 30 30 30 31 31 31 30 31 31 31 30 30 29
15 15 15 14 13 14 14 13 13 13 12 12 12 12 11 11 12 13 14 16 16 17 19 21 23 24 25 25 25 25 24 25 24 24 23 23 24 24 24 22 22 24 24 24 23 24 25 26 27 28 28 29 29 30 30 31 30 29 28 28 28 30 29 28 27 28 30 31 33 33 33 32 32 31
16 16 16 15 15 15 15 13 13 13 13 13 13 12 11 11 12 13 15 17 17 19 21 23 24 24 25 27 27 26 25 24 24 24 24 24 24 25 24 24 25 26 27 27 26 26 27 28 29 29 30 30 31 31 30 29 29 29 29 30 31 32 31 30 29 29 29 30 32 34 35 35 35 33
18 18 18 17 17 16 16 15 14 14 15 15 14 12 12 12 13 14 16 18 20 22 23 24 24 25 26 28 28 27 26 25 25 24 24 24 24 25 25 25 26 27 26 26 26 27 28 28 28 28 29 30 31 31 30 29 29 31 33 34 34 34 34 33 31 29 28 28 30 31 33 35 35 34
19 18 17 17 16 14 14 14 14 14 14 14 13 12 12 13 15 17 19 21 23 25 26 26 26 26 27 27 27 27 26 25 25 24 24 25 26 26 26 26 25 25 25 27 29 29 29 29 28 29 30 31 32 32 32 31 32 34 35 35 35 34 34 33 31 28 28 29 30 31 32 34 34 34
20 19 18 17 15 13 13 14 14 13 13 13 13 14 15 17 18 19 21 22 25 27 27 27 27 27 27 27 27 28 27 26 26 25 24 25 25 25 26 25 24 25 28 31 32 31 30 29 30 32 33 34 34 35 35 34 35 35 34 33 33 33 33 33 32 31 31 31 31 33 34 35 35 35
21 20 20 19 18 17 17 18 17 16 15 15 15 16 17 18 19 20 22 23 26 27 27 27 26 26 28 28 28 28 28 27 26 24 24 25 26 26 26 27 27 28 30 32 32 31 30 30 33 35 35 36 37 36 35 34 34 34 33 32 32 32 33 33 32 32 33 34 34 35 36 37 37 39
21 20 20 19 19 19 20 20 19 18 18 17 17 17 17 18 20 22 23 25 26 25 24 23 24 25 28 28 28 28 28 26 25 24 26 27 28 27 27 29 30 30 30 31 33 35 35 35 37 38 36 34 33 30 28 27 27 28 28 29 29 30 30 31 32 34 37 38 40 40 40 40 41 43
22 22 21 19 20 21 20 18 18 18 17 16 17 17 18 19 21 22 24 26 26 23 21 21 23 26 28 28 27 27 27 26 26 26 27 28 29 30 30 32 33 33 32 32 36 40 39 35 34 34 31 29 28 27 26 25 26 27 28 29 29 30 31 33 36 39 40 41 42 42 41 42 43 46
23 22 21 21 23 23 21 18 17 17 16 16 17 18 19 20 20 23 25 26 24 21 20 22 24 26 27 27 28 26 25 25 26 27 28 30 32 35 35 35 35 35 33 32 35 38 36 30 29 31 31 30 29 28 27 28 29 29 29 30 31 33 36 38 39 39 38 38 39 40 42 44 47 50
24 23 23 24 25 24 21 19 18 17 17 18 19 20 21 21 21 24 26 24 20 19 20 23 25 25 26 26 26 24 23 25 27 30 32 33 35 35 33 33 33 31 28 27 30 35 34 29 28 31 32 31 30 28 28 30 30 31 32 34 36 37 38 37 36 36 35 37 40 42 45 48 50 53
24 23 24 25 25 23 21 20 19 18 18 18 20 21 22 23 23 23 22 19 18 19 21 23 24 24 24 23 23 23 25 27 29 31 31 31 30 29 28 29 30 28 27 26 27 34 35 29 28 31 31 31 32 31 32 33 34 35 37 37 36 35 35 35 36 38 40 42 45 47 49 50 50 52
24 25 25 26 25 23 20 18 17 18 19 20 21 23 24 26 24 21 19 17 18 20 21 22 22 21 21 22 24 26 28 30 30 29 27 25 25 26 28 29 28 27 27 26 26 31 34 30 30 33 32 32 33 34 35 36 37 36 36 34 34 33 34 37 39 42 44 47 49 49 49 49 49 51
26 28 28 27 26 22 18 15 16 19 21 21 22 24 26 26 23 19 17 18 19 20 21 21 22 22 23 24 26 27 28 27 24 23 23 23 25 28 29 29 28 28 28 27 25 29 33 30 29 32 33 33 36 38 39 38 36 34 33 32 34 36 39 41 43 45 47 49 49 48 48 47 48 49
29 31 30 27 22 18 14 16 19 21 21 22 22 24 25 23 20 19 18 18 18 19 21 23 24 24 25 25 27 26 23 19 17 19 24 26 27 28 28 28 29 30 28 26 24 27 30 29 29 33 37 39 40 39 38 36 33 32 33 34 36 40 44 46 46 47 49 49 48 47 46 45 44 43
33 34 31 23 17 14 15 18 21 20 20 21 22 22 21 19 18 18 18 18 19 21 23 25 25 25 25 24 24 21 17 15 17 22 25 25 24 25 26 26 28 29 26 23 24 28 31 33 34 36 37 40 41 37 34 34 34 35 37 39 41 44 47 47 48 49 49 47 45 43 41 40 38 38
35 29 23 18 15 17 21 21 19 19 20 21 20 18 17 17 17 18 19 20 20 22 24 24 23 23 22 20 19 17 15 17 19 20 20 19 18 20 22 23 25 27 29 30 32 34 35 35 36 35 33 35 38 37 36 36 38 39 40 41 42 46 48 48 49 49 45 43 42 41 40 39 35 34
28 20 16 17 18 19 20 19 18 19 17 15 15 14 15 16 18 20 21 21 22 22 22 22 21 20 18 16 15 15 15 16 18 19 19 18 18 20 23 26 28 32 36 35 32 32 33 33 34 34 32 32 36 38 40 41 40 40 41 41 43 47 48 47 47 45 42 41 41 40 39 37 33 31
17 13 14 18 19 18 18 19 18 17 14 12 13 14 16 18 20 21 21 21 21 21 20 20 18 15 14 14 14 14 15 17 20 22 24 25 27 29 29 30 31 33 33 30 28 29 31 32 33 33 33 34 37 40 43 43 41 41 42 43 45 46 45 44 44 43 41 41 41 39 36 34 32 32
15 15 16 18 18 18 19 18 16 14 13 13 14 16 18 20 20 20 21 20 20 19 18 16 13 11 12 14 15 17 18 20 22 24 26 29 29 29 26 24 25 27 28 30 30 29 30 31 31 31 33 36 39 40 41 42 42 43 46 48 47 45 44 43 42 41 41 41 41 40 36 32 31 31
18 18 18 18 18 19 17 16 15 14 14 14 16 18 19 20 20 20 19 17 16 15 13 10 9 11 13 15 16 18 19 22 24 25 27 26 24 23 22 22 24 26 28 29 28 26 26 28 29 30 32 36 38 39 39 39 40 42 47 50 49 46 44 42 41 40 41 42 43 42 39 34 31 31
18 19 19 18 17 16 15 14 13 13 14 16 17 17 17 17 17 15 12 9 8 8 7 8 11 14 16 16 17 18 20 22 24 23 22 22 21 22 23 24 26 26 26 25 24 22 23 25 28 30 31 34 36 36 35 37 39 41 45 49 49 46 43 41 41 42 42 43 44 44 41 37 34 33
21 20 18 15 14 13 12 12 12 14 15 15 14 13 12 12 10 9 8 7 5 6 8 12 16 18 17 15 16 19 22 24 22 21 21 22 22 22 23 26 27 26 24 23 22 22 23 25 27 29 30 33 35 34 34 36 39 42 44 46 48 47 44 42 43 44 43 44 46 44 40 37 33 32
20 17 14 12 11 11 11 12 12 12 11 10 11 12 10 9 9 10 10 10 8 9 12 16 18 18 16 14 17 21 24 23 20 20 20 22 23 23 24 27 29 28 27 25 24 23 24 24 26 28 30 33 35 34 33 35 38 42 44 45 45 45 45 45 45 45 45 45 46 44 40 36 32 29
16 13 11 10 10 10 10 10 10 10 10 11 13 13 11 11 11 11 10 11 11 12 15 18 18 15 13 16 21 25 24 21 19 20 20 21 23 24 24 26 28 29 29 28 27 26 25 25 25 27 30 34 35 34 34 35 38 40 43 43 43 43 44 45 46 47 46 45 45 44 40 36 32 29
12 10 9 9 8 8 7 7 9 10 11 12 13 12 12 12 12 11 11 13 14 14 16 17 15 13 15 20 25 26 23 19 19 19 19 21 22 23 23 25 27 27 28 29 29 28 27 26 26 27 30 34 34 33 34 36 38 38 40 41 42 43 44 44 45 46 46 44 44 43 40 36 32 27
8 5 4 5 6 7 7 8 9 11 11 11 10 10 11 12 12 12 12 13 13 13 14 14 14 16 20 25 26 24 20 18 19 19 20 21 21 22 23 25 25 26 27 28 29 29 28 28 27 29 33 35 33 32 33 34 36 37 38 39 41 43 43 44 45 45 43 39 38 40 41 39 32 24
7 4 4 6 8 10 11 12 12 12 12 11 9 10 11 12 11 12 13 14 15 17 18 19 20 21 23 24 22 19 17 17 19 20 19 20 20 21 22 23 24 26 27 28 29 28 28 27 27 30 35 36 35 35 34 31 32 37 39 39 40 41 42 43 44 43 40 38 36 35 38 39 34 23
10 10 10 10 10 11 13 13 13 12 11 10 10 10 11 10 10 11 13 14 16 19 20 20 20 19 18 17 15 15 16 17 19 19 19 19 20 21 21 22 24 25 26 27 28 27 26 27 26 29 34 36 37 39 37 31 30 34 38 40 41 40 40 42 41 39 38 37 35 34 35 37 35 26
13 14 13 11 11 12 13 13 12 10 9 9 10 9 9 9 10 12 14 15 17 19 20 19 17 14 13 13 14 15 16 17 17 18 19 20 20 20 21 23 24 25 26 27 27 26 27 26 26 28 32 34 36 39 38 34 32 33 35 38 40 39 38 39 40 38 36 35 34 35 36 35 32 25
14 14 13 11 11 12 12 11 11 10 9 9 10 9 9 10 11 11 13 17 20 23 22 17 14 12 12 13 14 15 16 16 17 18 19 19 19 20 22 23 24 25 26 27 27 26 25 25 25 29 32 33 34 36 36 36 37 37 35 36 38 39 37 36 37 36 36 35 35 36 36 32 27 23
14 15 14 11 10 10 11 11 12 13 12 11 11 10 9 10 11 13 15 19 23 24 20 13 11 13 14 12 13 14 15 16 17 18 18 19 19 21 22 23 24 26 27 26 26 25 24 24 27 30 32 31 31 30 29 32 36 38 36 35 36 37 35 34 33 33 33 34 36 38 36 29 21 16
13 13 12 10 9 10 11 10 10 11 11 11 11 11 11 12 14 15 16 18 20 21 19 15 15 15 13 11 12 14 14 15 16 17 18 18 20 21 22 23 24 25 25 25 26 25 25 25 28 30 31 30 29 26 25 29 34 37 36 35 35 35 33 31 31 31 29 29 33 36 36 30 22 15
8 7 7 9 11 13 13 12 10 8 8 8 7 8 11 14 16 16 17 19 19 18 14 10 10 10 9 10 12 13 14 15 16 17 17 19 20 21 21 22 23 23 24 25 26 26 26 26 28 29 30 29 26 25 26 30 34 37 38 37 36 35 33 29 27 26 24 25 28 31 32 30 26 20
9 8 8 11 12 11 10 10 9 7 7 8 9 12 13 13 14 16 18 18 17 13 10 9 9 9 9 11 12 13 14 15 16 16 17 18 20 21 21 22 22 23 24 25 25 26 26 26 26 28 29 27 26 26 28 30 33 36 38 38 36 36 34 30 25 21 19 21 24 25 26 30 30 27
9 9 9 11 11 8 7 7 7 7 8 10 11 13 13 12 13 16 15 11 9 10 10 9 9 10 11 11 12 13 14 14 15 15 17 18 19 21 21 21 22 22 23 24 25 25 25 24 25 27 28 26 26 27 26 26 30 35 37 37 37 37 38 35 27 19 15 15 15 14 17 22 25 26
7 7 9 10 11 9 7 6 6 7 10 11 11 11 12 13 15 15 12 8 7 8 9 9 10 11 11 11 12 14 14 14 14 15 17 18 18 19 20 21 21 22 22 23 25 25 25 24 24 26 26 25 25 25 23 24 29 34 36 36 37 39 40 38 31 23 16 13 12 12 13 15 16 17
10 10 10 9 9 8 6 6 6 7 10 11 10 11 13 14 13 12 10 9 8 8 8 10 10 10 10 12 14 14 14 14 14 15 16 17 18 18 19 20 21 21 22 23 25 26 25 23 23 24 25 25 25 24 21 22 28 34 36 36 38 40 41 39 36 31 25 19 15 14 14 14 14 14
Wind_Direction
210 220 237 250 252 247 235 232 240 245 254 260 257 254 254 260 266 268 273 277 281 286 286 295 310 313 309 306 304 300 299 298 296 298 300 301 303 307 304 298 296 299 301 300 300 298 295 293 292 290 288 285 282 279 278 277 278 278 278 278 280 281 281 281 282 282 282 281 280 276 272 268 266 264
208 211 214 215 225 236 231 230 239 245 257 266 267 267 266 263 265 266 267 271 280 285 274 269 282 293 298 299 297 294 293 291 291 296 300 299 299 302 303 300 298 298 299 299 297 295 294 292 290 289 287 285 283 281 279 276 276 276 276 276 276 278 279 279 279 280 281 283 283 282 280 275 271 267
213 215 214 215 224 230 226 224 229 233 247 261 262 254 260 271 276 271 269 276 283 285 285 288 291 291 293 293 291 290 291 291 291 294 298 297 295 298 301 299 297 296 296 296 296 294 292 289 287 287 286 286 285 283 281 280 278 277 276 275 275 275 276 277 278 278 280 281 283 283 283 282 278 274
221 230 229 224 228 234 234 234 236 240 249 256 258 259 267 281 290 284 279 287 295 300 302 306 310 310 308 305 300 294 294 297 294 294 297 294 292 296 300 300 299 298 297 296 297 297 295 292 288 286 286 286 285 283 281 279 278 277 276 275 274 273 273 274 275 276 277 279 281 281 282 281 281 280
219 229 236 230 226 228 232 236 242 253 256 251 261 279 280 289 297 292 288 294 302 310 314 315 317 319 318 317 315 308 301 298 295 293 295 293 288 288 293 297 300 301 301 298 297 297 296 295 293 290 289 288 287 286 283 281 279 278 276 274 272 271 270 271 272 273 274 276 276 276 277 278 279 280
220 224 229 226 222 225 230 236 247 259 259 243 243 253 259 270 274 273 278 286 295 307 317 319 319 323 323 321 319 314 309 308 303 298 298 298 294 292 293 295 295 295 294 292 292 293 293 295 294 292 291 291 290 289 287 286 284 281 279 277 275 272 269 268 269 271 272 273 274 274 274 275 276 277
220 222 223 218 217 225 236 245 253 256 250 239 234 239 250 262 267 271 279 284 290 300 310 317 319 321 321 318 317 316 314 314 312 306 304 304 302 302 301 296 289 286 285 285 285 287 289 292 293 293 292 291 290 290 291 290 289 286 282 281 281 278 272 268 267 269 271 273 274 274 274 275 274 273
218 218 216 212 213 219 228 237 242 246 251 248 242 248 259 269 277 286 290 291 293 295 301 310 315 316 316 316 315 313 310 311 311 307 303 301 301 302 303 299 292 289 288 286 284 283 284 287 290 292 292 290 288 288 289 290 290 289 285 283 283 282 277 273 269 269 270 270 271 273 273 274 273 272
220 219 215 211 212 218 224 230 234 239 247 250 252 262 270 274 283 289 291 293 293 292 297 304 309 312 314 315 313 310 308 310 311 307 302 300 299 300 301 299 297 296 293 291 289 287 287 290 292 293 293 291 288 288 289 288 287 287 286 285 287 285 279 276 275 274 272 269 269 269 269 270 271 271
222 221 217 215 217 222 226 229 232 235 241 245 250 260 268 273 278 281 286 290 289 290 294 299 304 308 311 312 311 310 310 309 309 308 305 302 301 300 301 300 298 297 293 290 289 289 291 294 294 293 293 293 292 292 292 288 284 284 284 286 290 289 282 277 279 281 277 271 268 266 264 265 267 269
225 224 220 219 221 226 228 227 228 233 239 245 250 255 263 270 276 282 290 293 292 292 294 296 300 305 307 308 308 309 309 307 307 306 303 299 297 297 297 297 296 295 292 290 291 292 294 295 294 293 292 292 293 294 293 288 284 283 283 284 287 287 283 279 280 283 282 277 273 268 264 263 264 267
225 225 223 224 228 234 238 238 236 236 240 247 252 258 267 275 281 288 293 295 294 292 292 294 297 301 303 303 303 304 305 304 303 302 298 295 294 295 295 295 296 296 295 295 297 298 298 297 296 293 291 291 293 294 293 290 287 285 284 283 283 284 282 280 281 284 286 284 281 276 271 270 269 271
223 221 219 222 227 232 240 246 248 247 245 246 250 258 269 277 283 289 294 298 297 292 288 290 293 296 298 299 300 301 302 302 300 298 295 291 292 294 294 295 297 297 298 300 301 299 297 294 293 292 291 293 294 293 291 289 286 285 283 281 279 278 278 277 280 285 289 288 285 281 277 276 275 278
223 220 217 217 218 220 225 234 242 245 246 247 250 258 268 277 284 291 296 301 303 295 288 288 290 292 294 296 298 300 301 302 300 295 291 289 292 296 297 299 302 302 304 304 300 296 294 291 291 291 291 292 293 292 290 287 284 281 278 276 275 274 276 279 283 288 291 291 290 286 282 280 279 282
221 220 220 217 218 223 226 229 233 238 244 249 253 259 269 280 288 293 296 302 306 298 289 289 291 292 294 297 299 300 300 300 295 290 288 291 297 300 301 302 304 304 304 299 294 292 292 291 292 293 294 296 297 296 295 293 289 284 280 279 279 281 283 286 288 290 290 289 288 287 284 282 281 283
219 219 221 218 219 225 230 230 229 232 239 247 255 263 275 285 293 298 301 303 304 296 288 288 291 293 296 297 298 299 298 296 294 290 289 293 298 300 302 303 302 302 301 295 291 292 294 295 297 299 301 303 303 302 300 298 295 292 290 288 287 286 285 285 286 287 286 285 283 283 283 281 281 282
220 220 220 220 220 224 228 229 228 231 240 250 260 269 278 286 293 302 305 303 300 293 287 288 290 295 297 295 296 298 297 297 296 293 292 296 299 301 303 303 303 303 303 300 298 298 300 304 305 304 306 307 306 306 303 299 297 294 290 287 284 282 283 284 285 285 285 283 282 281 281 281 280 279
221 221 221 222 222 224 227 229 229 237 248 257 267 274 280 284 293 302 305 302 295 290 289 289 291 294 295 294 295 296 295 295 295 293 294 297 300 303 305 306 306 307 310 310 305 301 303 307 306 302 304 306 304 302 298 294 292 289 285 284 283 285 287 288 289 290 290 289 286 283 282 281 280 279
225 224 224 225 227 228 229 229 235 246 255 264 272 278 282 288 296 304 305 298 290 290 292 293 295 296 296 295 293 291 290 292 293 294 295 298 304 310 311 312 313 313 314 312 302 295 298 304 302 298 298 298 295 292 289 287 286 285 287 289 291 293 294 295 295 294 292 290 289 287 286 284 283 280
226 226 226 227 230 231 233 238 248 257 264 271 276 279 285 291 297 304 302 291 288 293 296 295 293 291 289 286 282 282 287 293 297 298 297 302 312 315 313 313 312 308 306 304 297 292 295 299 299 297 296 295 292 290 288 288 289 291 293 295 297 299 300 300 299 297 295 294 293 292 290 288 285 281
228 232 231 231 232 232 235 251 264 266 270 275 278 283 289 293 295 297 295 288 290 296 295 293 289 284 281 281 283 288 295 300 302 299 298 307 313 309 305 305 304 300 300 304 301 294 294 298 299 297 295 293 291 291 291 293 295 297 298 298 300 303 305 305 304 301 300 299 298 295 293 290 286 282
230 233 232 230 231 229 234 255 267 269 272 277 281 285 289 288 286 288 290 290 292 293 291 291 290 287 287 289 292 296 301 305 308 303 303 310 310 300 295 297 298 299 301 305 303 294 294 298 298 296 296 294 293 293 295 298 300 301 302 303 304 307 309 308 307 305 304 303 301 297 293 290 287 281
231 230 227 221 220 231 247 259 265 268 272 278 282 284 283 281 280 284 290 292 293 292 292 292 291 291 294 295 298 302 304 307 311 308 307 309 304 297 297 299 299 299 299 298 294 292 295 297 296 297 300 299 298 299 301 303 304 304 304 304 305 309 312 312 310 308 307 305 302 299 296 294 288 281
230 226 221 217 226 249 260 261 263 269 275 280 281 278 275 277 282 289 294 295 294 292 292 292 293 297 300 300 301 304 304 304 305 304 305 309 307 303 301 298 294 292 289 288 289 292 297 299 298 300 300 298 298 302 304 306 307 308 308 308 308 313 316 315 312 311 308 306 305 304 302 298 290 279
227 220 221 236 251 259 259 259 266 273 277 276 272 271 275 282 289 293 295 295 294 293 294 295 298 301 302 300 298 295 292 295 295 291 291 296 296 292 288 286 286 286 287 290 295 298 301 301 301 302 302 298 297 301 305 307 309 311 313 312 311 314 318 317 314 312 310 308 309 307 303 297 289 280
226 228 240 254 258 255 255 262 270 272 271 269 270 276 283 288 291 293 294 295 295 295 295 296 298 302 302 301 302 298 292 290 289 285 284 283 284 284 283 284 286 288 293 301 306 305 302 301 301 302 301 299 299 301 304 307 312 317 318 316 315 317 319 319 316 312 311 311 310 308 302 295 288 281
245 257 260 258 253 250 256 263 264 264 267 271 277 285 289 291 294 295 296 296 295 294 295 296 301 308 306 301 298 295 291 288 287 287 286 286 287 290 291 294 296 298 302 307 308 304 301 300 302 301 300 299 299 300 302 306 313 319 320 320 321 320 320 321 319 315 313 314 313 310 305 296 287 281
250 255 257 256 253 253 256 257 256 261 269 277 285 291 294 296 299 299 298 298 297 296 298 301 303 299 291 288 288 288 287 288 290 291 293 296 300 304 307 308 307 305 304 305 306 305 301 300 302 302 301 301 300 300 303 307 311 316 320 322 323 321 321 323 322 318 315 314 314 313 310 303 292 286
241 245 250 253 252 250 251 254 259 269 280 288 294 298 302 308 311 309 308 310 309 303 299 298 299 298 292 286 283 286 292 298 303 306 309 312 315 314 311 308 305 304 306 310 314 314 309 306 303 302 304 307 307 306 308 309 310 314 320 323 322 322 323 324 323 320 317 315 313 312 311 307 298 289
236 243 247 250 251 249 254 264 274 284 292 298 303 308 314 323 333 339 341 339 329 309 299 300 307 314 316 304 291 296 305 310 313 315 314 312 312 310 308 307 308 312 318 323 324 322 316 310 304 302 306 312 314 313 310 308 310 315 321 324 324 323 323 324 323 322 321 318 315 313 311 309 302 289
237 242 245 249 251 254 265 277 288 298 306 312 319 322 327 339 353 356 349 341 331 312 304 306 310 316 318 307 299 309 315 313 311 311 310 309 310 310 311 312 315 320 326 329 326 321 315 311 308 307 310 314 316 315 313 311 312 315 320 325 325 322 322 324 323 323 322 320 317 314 313 313 307 292
235 242 244 245 249 260 276 292 307 319 319 315 320 330 339 344 340 333 326 326 324 313 309 313 314 309 295 286 295 312 318 311 307 311 311 310 311 314 317 318 318 321 324 324 322 318 314 313 312 310 311 314 316 318 318 317 315 316 321 326 326 324 324 324 323 322 323 322 319 317 316 316 311 298
235 243 244 248 260 276 293 311 320 319 310 306 315 328 332 327 321 313 309 310 309 303 305 310 306 290 278 283 298 312 314 308 308 313 313 313 317 321 322 319 317 318 318 317 317 317 316 317 316 314 316 318 319 320 320 318 317 320 325 327 327 327 326 325 323 322 322 322 321 318 316 316 314 306
237 242 253 270 281 285 287 288 288 286 285 289 297 304 306 309 310 307 301 298 292 289 292 293 286 283 290 298 306 310 308 307 311 314 315 318 322 322 320 318 316 316 315 315 317 318 318 320 321 321 322 324 323 322 321 320 322 326 328 328 328 328 327 325 323 322 322 323 321 318 315 316 317 314
229 222 249 266 266 267 271 273 273 273 276 280 283 284 288 296 302 299 292 288 285 284 286 289 291 296 302 306 308 310 310 311 313 315 318 322 321 320 319 318 315 315 315 317 318 319 321 323 323 323 326 329 328 326 326 329 331 331 330 329 330 330 327 325 324 324 324 326 325 320 317 317 318 317
215 214 233 247 253 259 266 269 272 274 275 275 278 282 282 282 287 293 295 293 291 291 295 301 306 309 312 314 315 314 311 310 312 316 320 322 321 321 320 317 315 316 317 318 320 325 329 328 324 325 329 331 330 327 328 332 336 336 335 333 333 332 329 326 325 325 325 327 327 324 320 319 319 315
217 224 237 248 257 265 270 272 272 270 267 266 267 271 275 278 282 290 294 294 293 296 302 309 315 317 316 314 311 307 306 310 315 319 320 321 323 322 320 318 317 318 318 320 325 332 333 328 325 328 331 330 328 326 327 330 338 344 344 339 335 334 333 329 325 325 326 327 327 325 322 321 319 315
226 238 248 257 265 270 273 272 268 259 253 256 256 257 275 287 284 280 286 290 290 292 298 305 309 307 303 301 303 306 310 316 319 318 319 321 323 321 319 320 320 320 321 325 329 332 330 326 326 330 331 328 325 324 326 329 335 344 349 345 339 337 337 334 328 326 327 329 327 324 323 323 322 317
239 250 254 253 260 269 269 267 265 260 256 259 261 264 281 292 284 279 285 287 285 289 297 301 294 293 296 302 308 312 314 316 316 317 320 322 321 320 321 322 322 324 326 328 328 329 328 326 326 329 329 325 322 322 325 328 333 340 347 349 345 342 341 339 333 328 329 330 327 324 323 324 321 315
250 256 252 241 243 255 257 255 263 269 271 274 277 276 276 274 272 277 285 286 286 294 300 290 280 287 300 310 314 313 311 313 315 318 321 321 320 322 324 324 325 327 328 327 327 328 328 328 327 329 328 323 320 323 329 332 334 337 342 347 349 347 347 346 341 334 333 334 330 327 327 329 331 331
237 246 244 237 243 252 256 257 262 268 275 283 287 279 274 277 280 282 280 280 289 304 312 303 299 312 321 316 311 309 310 314 317 319 320 320 322 325 327 326 327 328 327 326 327 327 327 328 329 331 333 331 329 334 339 338 338 340 343 347 349 348 349 352 349 341 339 340 338 333 332 335 337 339
214 225 236 245 251 253 254 261 260 252 259 274 275 272 278 291 298 292 284 284 294 311 331 342 341 332 315 306 306 308 311 315 316 317 320 323 326 327 327 327 328 329 327 328 328 326 327 331 335 338 341 343 343 344 344 341 342 345 349 351 351 352 354 357 356 350 350 354 351 346 346 347 343 339
228 235 240 252 261 251 239 251 257 253 265 278 282 283 285 286 286 290 295 303 305 308 315 317 311 303 301 304 306 306 308 312 316 320 326 329 328 326 326 327 328 328 328 328 327 326 331 338 341 342 345 347 345 345 345 346 348 352 354 355 357 359 359 359 359 0 6 9 7 7 12 8 357 343
241 241 236 248 261 259 255 265 272 271 275 279 288 298 292 276 273 285 299 305 296 292 294 291 290 298 304 302 300 303 309 319 328 331 329 327 325 325 326 327 328 329 331 330 329 331 337 341 342 343 347 349 345 344 347 353 356 358 359 2 5 6 2 360 0 5 14 20 21 25 33 33 20 354
237 235 236 247 258 258 256 262 269 278 281 283 288 291 283 276 278 287 293 295 295 293 289 288 294 301 297 292 299 312 323 331 333 328 323 324 326 327 327 328 329 331 333 332 331 335 340 341 340 341 346 350 348 346 351 1 3 1 3 8 12 12 9 6 5 9 15 21 25 27 31 34 29 12